DW5010 Weather Reports


Display with metric or nautical units.
time (UTC)temp
F
wind
direction
speed
MPH
gust
MPH
rain 1hr
in
rain 24hr
in
rain mn
in
humidity
%
barometer
mb
20260503021529 43 194 1.0 7.0 0.00 0.00 0.00 68 1013.7
20260503021013 43 157 2.0 7.0 0.00 0.00 0.00 67 1013.8
20260503020511 44 167 1.0 9.0 0.00 0.00 0.00 67 1013.7
20260503020031 44 0 1.0 9.0 0.00 0.00 0.00 67 1013.7
20260503015514 44 119 3.0 7.0 0.00 0.00 0.00 66 1013.6
20260503015014 44 169 1.0 5.0 0.00 0.00 0.00 66 1013.6
20260503014530 44 173 2.0 6.0 0.00 0.00 0.00 65 1013.5
20260503014015 44 148 2.0 6.0 0.00 0.00 0.00 65 1013.5
20260503013515 44 166 2.0 6.0 0.00 0.00 0.00 64 1013.5
20260503013036 45 119 1.0 5.0 0.00 0.00 0.00 64 1013.5
20260503012515 45 133 2.0 5.0 0.00 0.00 0.00 64 1013.6
20260503012015 45 130 2.0 5.0 0.00 0.00 0.00 63 1013.5
20260503011530 45 164 1.0 5.0 0.00 0.00 0.00 63 1013.5
20260503011014 45 130 2.0 5.0 0.00 0.00 0.00 62 1013.5
20260503010515 46 128 1.0 6.0 0.00 0.00 0.00 62 1013.6
20260503010036 46 158 2.0 6.0 0.00 0.00 0.00 61 1013.5
20260503005515 46 166 2.0 7.0 0.00 0.00 0.00 60 1013.5
20260503005016 46 146 1.0 7.0 0.00 0.00 0.00 60 1013.5
20260503004530 47 0 1.0 7.0 0.00 0.00 0.00 59 1013.5
20260503004016 47 153 2.0 9.0 0.00 0.00 0.00 58 1013.5
20260503003515 47 136 1.0 9.0 0.00 0.00 0.00 57 1013.6
20260503003028 48 126 2.0 6.0 0.00 0.00 0.00 57 1013.6
20260503002515 48 143 2.0 8.0 0.00 0.00 0.00 56 1013.7
20260503002015 48 110 3.0 8.0 0.00 0.00 0.00 56 1013.7
20260503001541 48 149 3.0 9.0 0.00 0.00 0.00 55 1013.7
20260503001015 48 159 3.0 9.0 0.00 0.00 0.00 54 1013.8
20260503000515 49 119 3.0 8.0 0.00 0.00 0.00 54 1013.8
20260503000030 49 0 3.0 7.0 0.00 0.00 0.00 53 1013.7
20260502235514 49 143 2.0 8.0 0.00 0.00 0.00 53 1013.8
20260502235015 49 165 3.0 8.0 0.00 0.00 0.00 52 1013.8
20260502234537 50 162 2.0 8.0 0.00 0.00 0.00 53 1013.9
20260502234019 50 130 4.0 8.0 0.00 0.00 0.00 51 1013.9
20260502233518 50 129 3.0 8.0 0.00 0.00 0.00 52 1014.0
20260502233029 50 128 3.0 8.0 0.00 0.00 0.00 53 1014.1
20260502232517 50 157 2.0 8.0 0.00 0.00 0.00 52 1014.1
20260502232012 50 119 2.0 8.0 0.00 0.00 0.00 51 1014.1
20260502231530 51 94 4.0 8.0 0.00 0.00 0.00 50 1014.2
20260502231015 51 101 3.0 8.0 0.00 0.00 0.00 51 1014.2
20260502230515 50 112 3.0 8.0 0.00 0.00 0.00 51 1014.3
20260502230034 50 187 4.0 8.0 0.00 0.00 0.00 51 1014.2
20260502225514 51 181 3.0 9.0 0.00 0.00 0.00 51 1014.3
20260502225020 51 138 3.0 9.0 0.00 0.00 0.00 50 1014.4
20260502224532 51 192 2.0 9.0 0.00 0.00 0.00 50 1014.5
20260502224015 51 141 4.0 9.0 0.00 0.00 0.00 52 1014.5
20260502223515 51 135 3.0 9.0 0.00 0.00 0.00 50 1014.5
20260502223032 51 111 3.0 9.0 0.00 0.00 0.00 52 1014.5
20260502222515 51 134 2.0 10.0 0.00 0.00 0.00 51 1014.6
20260502222014 51 126 6.0 10.0 0.00 0.00 0.00 49 1014.6
20260502221532 51 142 5.0 10.0 0.00 0.00 0.00 49 1014.6
20260502221015 52 126 3.0 10.0 0.00 0.00 0.00 49 1014.7
20260502220515 52 132 4.0 11.0 0.00 0.00 0.00 48 1014.7
20260502220030 53 115 5.0 11.0 0.00 0.00 0.00 47 1014.8
20260502215516 52 138 4.0 10.0 0.00 0.00 0.00 51 1014.7
20260502215016 52 86 5.0 10.0 0.00 0.00 0.00 48 1014.7
20260502214531 52 116 4.0 9.0 0.00 0.00 0.00 49 1014.7
20260502214015 52 136 5.0 9.0 0.00 0.00 0.00 46 1014.8
20260502213515 53 96 3.0 10.0 0.00 0.00 0.00 47 1014.9
20260502213030 53 115 3.0 10.0 0.00 0.00 0.00 48 1015.0
20260502212518 52 126 4.0 10.0 0.00 0.00 0.00 48 1015.0
20260502212014 52 148 1.0 8.0 0.00 0.00 0.00 52 1015.0
20260502211530 52 104 4.0 9.0 0.00 0.00 0.00 49 1015.0
20260502211018 52 97 3.0 9.0 0.00 0.00 0.00 48 1015.2
20260502210514 52 138 2.0 8.0 0.00 0.00 0.00 49 1015.2
20260502210031 52 112 2.0 10.0 0.00 0.00 0.00 48 1015.3
20260502205517 52 126 4.0 11.0 0.00 0.00 0.00 47 1015.2
20260502205016 53 140 4.0 11.0 0.00 0.00 0.00 47 1015.3
20260502204530 53 103 5.0 11.0 0.00 0.00 0.00 46 1015.5
20260502204016 53 96 3.0 10.0 0.00 0.00 0.00 48 1015.4
20260502203515 53 95 4.0 9.0 0.00 0.00 0.00 51 1015.5
20260502203029 53 111 6.0 9.0 0.00 0.00 0.00 48 1015.5
20260502202515 53 133 4.0 9.0 0.00 0.00 0.00 48 1015.6
20260502202015 54 93 4.0 8.0 0.00 0.00 0.00 47 1015.7
20260502201530 53 98 3.0 8.0 0.00 0.00 0.00 51 1015.6
20260502201015 52 105 4.0 8.0 0.00 0.00 0.00 50 1015.7
20260502200518 52 97 2.0 8.0 0.00 0.00 0.00 47 1015.9
20260502200032 52 117 3.0 8.0 0.00 0.00 0.00 47 1016.0
20260502195515 53 107 3.0 8.0 0.00 0.00 0.00 44 1015.9
20260502195014 53 96 3.0 8.0 0.00 0.00 0.00 44 1016.0
20260502194533 54 118 3.0 9.0 0.00 0.00 0.00 44 1016.0
20260502194014 54 153 4.0 11.0 0.00 0.00 0.00 45 1016.2
20260502193514 55 92 3.0 11.0 0.00 0.00 0.00 50 1016.2
20260502193030 54 123 3.0 11.0 0.00 0.00 0.00 50 1016.2
20260502192516 54 113 6.0 9.0 0.00 0.00 0.00 44 1016.2
20260502192015 53 130 3.0 9.0 0.00 0.00 0.00 48 1016.5
20260502191529 53 117 3.0 9.0 0.00 0.00 0.00 46 1016.5
20260502191015 53 94 2.0 9.0 0.00 0.00 0.00 45 1016.5
20260502190515 53 118 3.0 8.0 0.00 0.00 0.00 48 1016.6
20260502190037 53 97 2.0 8.0 0.00 0.00 0.00 44 1016.6
20260502185515 54 88 3.0 8.0 0.00 0.00 0.00 43 1016.6
20260502185012 54 137 1.0 6.0 0.00 0.00 0.00 37 1016.7
20260502184537 54 334 1.0 9.0 0.00 0.00 0.00 38 1016.7
20260502184015 55 24 1.0 11.0 0.00 0.00 0.00 39 1016.7
20260502183516 55 13 4.0 11.0 0.00 0.00 0.00 43 1016.8
20260502183043 54 305 3.0 12.0 0.00 0.00 0.00 43 1016.8
20260502182516 54 290 5.0 12.0 0.00 0.00 0.00 38 1017.0
20260502182015 53 336 4.0 12.0 0.00 0.00 0.00 45 1017.0
20260502181539 54 242 4.0 12.0 0.00 0.00 0.00 40 1016.9
20260502181015 54 284 4.0 10.0 0.00 0.00 0.00 41 1017.0
20260502180515 53 5 2.0 8.0 0.00 0.00 0.00 44 1017.0
20260502170515 53 17 3.0 10.0 0.00 0.00 0.00 39 1017.6
20260502164015 53 242 3.0 12.0 0.00 0.00 0.00 42 1017.8
20260502163515 53 296 3.0 12.0 0.00 0.00 0.00 48 1017.9
20260502163028 53 262 5.0 12.0 0.00 0.00 0.00 44 1018.0
20260502162515 53 324 4.0 12.0 0.00 0.00 0.00 43 1018.0
20260502162012 53 174 2.0 12.0 0.00 0.00 0.00 41 1018.0
20260502161533 53 258 6.0 12.0 0.00 0.00 0.00 45 1018.1
20260502161014 53 288 5.0 9.0 0.00 0.00 0.00 50 1018.1
20260502160518 52 30 3.0 11.0 0.00 0.00 0.00 47 1018.1
20260502152016 51 360 4.0 10.0 0.00 0.00 0.00 48 1018.5
20260502151533 50 360 4.0 10.0 0.00 0.00 0.00 52 1018.5
20260502151014 50 299 2.0 11.0 0.00 0.00 0.00 49 1018.5
20260502150514 50 264 3.0 11.0 0.00 0.00 0.00 53 1018.5
20260502130514 40 219 2.0 7.0 0.00 0.00 0.00 77 1018.9
20260502123512 37 240 2.0 7.0 0.00 0.00 0.00 83 1019.1
20260502123036 36 257 3.0 7.0 0.00 0.00 0.00 84 1018.9
20260502122515 36 254 3.0 7.0 0.00 0.00 0.00 84 1019.0
20260502122015 35 0 2.0 7.0 0.00 0.00 0.00 85 1019.0
20260502121540 35 262 2.0 7.0 0.00 0.00 0.00 85 1019.1
20260502121015 35 0 1.0 8.0 0.00 0.00 0.00 86 1018.9
20260502120515 34 240 3.0 8.0 0.00 0.00 0.00 86 1019.0
20260502115514 33 263 2.0 7.0 0.00 0.00 0.00 87 1018.8
20260502115015 33 302 1.0 6.0 0.00 0.00 0.00 87 1018.8
20260502114531 33 252 1.0 7.0 0.00 0.00 0.00 87 1018.8
20260502114014 32 271 1.0 7.0 0.00 0.00 0.00 86 1018.7
20260502113514 32 271 2.0 6.0 0.00 0.00 0.00 87 1018.6
20260502113032 32 267 2.0 6.0 0.00 0.00 0.00 87 1018.7
20260502112511 32 271 2.0 6.0 0.00 0.00 0.00 86 1018.7
20260502112015 31 242 2.0 7.0 0.00 0.00 0.00 86 1018.6
20260502111531 31 255 2.0 7.0 0.00 0.00 0.00 87 1018.6
20260502111015 31 260 3.0 7.0 0.00 0.00 0.00 87 1018.7
20260502110515 31 257 2.0 7.0 0.00 0.00 0.00 86 1018.6
20260502110030 31 256 2.0 6.0 0.00 0.00 0.00 86 1018.6
20260502105515 31 254 2.0 6.0 0.00 0.00 0.00 86 1018.6
20260502105015 31 267 2.0 4.0 0.00 0.00 0.00 86 1018.6
20260502104532 31 238 2.0 4.0 0.00 0.00 0.00 86 1018.6
20260502104014 31 259 2.0 4.0 0.00 0.00 0.00 86 1018.5
20260502103514 31 246 1.0 4.0 0.00 0.00 0.00 86 1018.6
20260502103032 31 262 2.0 4.0 0.00 0.00 0.00 86 1018.5
20260502102513 31 265 2.0 6.0 0.00 0.00 0.00 86 1018.6
20260502102014 31 248 2.0 6.0 0.00 0.00 0.00 86 1018.5
20260502101542 31 274 2.0 6.0 0.00 0.00 0.00 86 1018.6
20260502101014 30 263 1.0 4.0 0.00 0.00 0.00 86 1018.6
20260502100516 30 248 1.0 5.0 0.00 0.00 0.00 86 1018.5
20260502091532 30 243 1.0 3.0 0.00 0.00 0.00 85 1018.4
20260502091014 30 263 1.0 3.0 0.00 0.00 0.00 85 1018.4
20260502090514 30 261 1.0 3.0 0.00 0.00 0.00 85 1018.4
20260502071530 30 0 0.0 0.0 0.00 0.00 0.00 84 1018.4
20260502071014 30 0 0.0 0.0 0.00 0.00 0.00 84 1018.4
20260502070515 30 0 0.0 2.0 0.00 0.00 0.00 84 1018.4
20260502070033 30 0 0.0 2.0 0.00 0.00 0.00 83 1018.4
20260502065515 30 0 0.0 0.0 0.00 0.00 0.00 83 1018.4
20260502065014 30 0 0.0 0.0 0.00 0.00 0.00 83 1018.5
20260502064533 30 0 0.0 2.0 0.00 0.00 0.00 83 1018.6
20260502064014 30 0 0.0 2.0 0.00 0.00 0.00 83 1018.4
20260502063514 31 221 0.0 2.0 0.00 0.00 0.00 83 1018.5
20260502063029 31 0 0.0 2.0 0.00 0.00 0.00 83 1018.6
20260502062514 31 0 0.0 2.0 0.00 0.00 0.00 83 1018.7
20260502062016 31 0 0.0 3.0 0.00 0.00 0.00 83 1018.8
20260502061531 30 0 0.0 3.0 0.00 0.00 0.00 83 1018.8
20260502061011 30 0 0.0 2.0 0.00 0.00 0.00 84 1018.8
20260502060514 30 0 0.0 2.0 0.00 0.00 0.00 84 1018.8
20260502060030 30 0 0.0 2.0 0.00 0.00 0.00 84 1018.8
20260502055514 30 236 0.0 2.0 0.00 0.00 0.00 83 1018.9
20260502055019 30 0 0.0 0.0 0.00 0.00 0.00 83 1018.8
20260502054530 30 0 0.0 0.0 0.00 0.00 0.00 83 1018.8
20260502054015 30 0 0.0 0.0 0.00 0.00 0.00 82 1018.8
20260502053514 30 0 0.0 0.0 0.00 0.00 0.00 81 1018.8
20260502053029 30 0 0.0 0.0 0.00 0.00 0.00 80 1018.8
20260502052514 30 0 0.0 0.0 0.00 0.00 0.00 80 1019.0
20260502052012 31 0 0.0 0.0 0.00 0.00 0.00 80 1018.9
20260502051530 31 0 0.0 0.0 0.00 0.00 0.00 80 1018.8
20260502051013 31 0 0.0 0.0 0.00 0.00 0.00 80 1018.8
20260502050516 31 0 0.0 0.0 0.00 0.00 0.00 81 1018.8
20260502050036 31 0 0.0 0.0 0.00 0.00 0.00 80 1018.8
20260502045511 31 0 0.0 0.0 0.00 0.00 0.00 80 1018.7
20260502045017 31 0 0.0 0.0 0.00 0.00 0.00 80 1018.7
20260502044527 31 0 0.0 0.0 0.00 0.00 0.00 80 1018.7
20260502044013 31 0 0.0 2.0 0.00 0.00 0.00 80 1018.8
20260502043512 31 0 0.0 2.0 0.00 0.00 0.00 80 1018.7
20260502043032 31 236 1.0 2.0 0.00 0.00 0.00 80 1018.7
20260502042512 31 233 0.0 2.0 0.00 0.00 0.00 80 1018.7
20260502042016 31 0 0.0 2.0 0.00 0.00 0.00 80 1018.7
20260502041544 31 59 0.0 2.0 0.00 0.00 0.00 80 1018.7
20260502041014 31 184 0.0 2.0 0.00 0.00 0.00 80 1018.6
20260502040512 31 0 0.0 0.0 0.00 0.00 0.00 80 1018.7
20260502040030 31 0 0.0 0.0 0.00 0.00 0.00 80 1018.7
20260502035514 31 0 0.0 0.0 0.00 0.00 0.00 79 1018.7
20260502035014 32 0 0.0 0.0 0.00 0.00 0.00 79 1018.6
20260502034528 32 0 0.0 0.0 0.00 0.00 0.00 78 1018.6
20260502034013 32 0 0.0 0.0 0.00 0.00 0.00 78 1018.6
20260502033514 32 0 0.0 0.0 0.00 0.00 0.00 77 1018.6
20260502033036 32 0 0.0 0.0 0.00 0.00 0.00 77 1018.5
20260502032518 32 0 0.0 0.0 0.00 0.00 0.00 77 1018.5
20260502032011 32 0 0.0 0.0 0.00 0.00 0.00 76 1018.5
20260502031530 33 0 0.0 0.0 0.00 0.00 0.00 76 1018.4
20260502031015 33 0 0.0 0.0 0.00 0.00 0.00 76 1018.5
20260502030515 33 0 0.0 0.0 0.00 0.00 0.00 75 1018.4
20260502030032 33 0 0.0 0.0 0.00 0.00 0.00 76 1018.5
20260502025514 33 0 0.0 0.0 0.00 0.00 0.00 75 1018.4
20260502025014 33 0 0.0 0.0 0.00 0.00 0.00 75 1018.3
20260502024534 33 0 0.0 0.0 0.00 0.00 0.00 75 1018.3
20260502024011 33 0 0.0 0.0 0.00 0.00 0.00 75 1018.3
20260502023514 33 0 0.0 0.0 0.00 0.00 0.00 75 1018.3
20260502023028 33 0 0.0 0.0 0.00 0.00 0.00 74 1018.3
20260502022514 34 0 0.0 0.0 0.00 0.00 0.00 74 1018.4
20260502022017 34 0 0.0 0.0 0.00 0.00 0.00 74 1018.4